Date String (YYYY-MM-DD hh:mm:ss) UTC,Instrument flags,Ambient pressure (hPa),Sample flow (lpm),Bypass flow (lpm),Sample temperature (°C),Ambient temperature (°C),ASC tube jacket temperature (°C),LED temperature (°C),Box temperature (°C),Sample RH (%),Span deviation,Mass concentration (μg/m³),Mass concentration (μg/m³),Mass concentration (μg/m³)
DateTimeUTC,F1_M11,P_M11,Q1_M11,Q2_M11,T1_M11,T2_M11,T3_M11,T4_M11,T5_M11,U1_M11,ZSPAN_M11,X0_M11,X2_M11,X1_M11
2022-10-03 14:00:00,,0829.8,5.00,0.00,29.8,28.3,00.0,38.6,31.6,19.7,0000.0,0003.78,0002.63,0002.23
2022-10-03 14:01:00,,0829.8,5.02,0.00,29.8,28.3,00.0,38.6,31.6,19.9,0000.0,0003.85,0002.63,0002.22
2022-10-03 14:02:00,,0829.9,4.99,0.00,29.8,28.3,00.0,38.6,31.6,19.7,0000.0,0003.88,0002.63,0002.22
2022-10-03 14:03:00,,0829.9,5.00,0.00,29.8,28.3,00.0,38.6,31.6,19.4,0000.0,0004.32,0002.66,0002.22
2022-10-03 14:04:00,,0829.9,4.99,0.00,29.8,28.3,00.0,38.6,31.6,19.5,0000.0,0006.57,0002.74,0002.22
2022-10-03 14:05:00,,0829.9,5.01,0.00,29.8,28.3,00.0,38.6,31.6,19.5,0000.0,0006.50,0002.73,0002.20
2022-10-03 14:06:00,,0829.9,4.99,0.00,29.8,28.3,00.0,38.6,31.6,19.3,0000.0,0006.51,0002.73,0002.19
2022-10-03 14:07:00,,0829.9,5.01,0.00,29.8,28.3,00.0,38.6,31.6,19.1,0000.0,0006.56,0002.74,0002.19
2022-10-03 14:08:00,,0829.9,5.00,0.00,29.8,28.3,00.0,38.6,31.6,19.0,0000.0,0006.47,0002.71,0002.19
2022-10-03 14:09:00,,0829.9,5.01,0.00,29.8,28.3,00.0,38.6,31.6,18.8,0000.0,0006.29,0002.67,0002.18
2022-10-03 14:10:00,,0829.9,5.01,0.00,29.8,28.3,00.0,38.6,31.6,18.9,0000.0,0006.32,0002.69,0002.18
2022-10-03 14:11:00,,0829.9,4.99,0.00,29.8,28.3,00.0,38.6,31.6,18.9,0000.0,0006.24,0002.67,0002.18
2022-10-03 14:12:00,,0829.9,5.01,0.00,29.8,28.3,00.0,38.6,31.6,18.8,0000.0,0006.27,0002.68,0002.18
2022-10-03 14:13:00,,0829.9,4.99,0.00,29.8,28.3,00.0,38.6,31.6,19.0,0000.0,0006.38,0002.71,0002.18
2022-10-03 14:14:00,,0829.9,5.01,0.00,29.8,28.3,00.0,38.6,31.6,19.0,0000.0,0006.22,0002.68,0002.18
2022-10-03 14:15:00,,0829.9,4.99,0.00,29.8,28.3,00.0,38.6,31.6,19.0,0000.0,0003.73,0002.60,0002.16
2022-10-03 14:16:00,,0829.8,5.01,0.00,29.8,28.3,00.0,38.5,31.6,19.0,0000.0,0004.08,0002.57,0002.16
2022-10-03 14:17:00,,0829.9,4.98,0.00,29.8,28.3,00.0,38.5,31.6,19.4,0000.0,0005.26,0002.55,0002.15
2022-10-03 14:18:00,,0829.9,5.01,0.00,29.8,28.3,00.0,38.5,31.6,19.5,0000.0,0005.28,0002.56,0002.15
2022-10-03 14:19:00,,0829.8,4.98,0.00,29.8,28.3,00.0,38.5,31.6,19.2,0000.0,0005.35,0002.56,0002.14
2022-10-03 14:20:00,,0829.9,5.01,0.00,29.8,28.3,00.0,38.5,31.6,19.1,0000.0,0005.52,0002.61,0002.16
2022-10-03 14:21:00,,0829.8,5.00,0.00,29.8,28.3,00.0,38.5,31.6,19.1,0000.0,0005.46,0002.60,0002.16
2022-10-03 14:22:00,,0829.9,5.00,0.00,29.8,28.3,00.0,38.6,31.6,19.1,0000.0,0005.52,0002.62,0002.18
2022-10-03 14:23:00,,0829.8,5.01,0.00,29.8,28.3,00.0,38.6,31.6,19.1,0000.0,0005.46,0002.62,0002.19
2022-10-03 14:24:00,,0829.8,4.99,0.00,29.8,28.3,00.0,38.6,31.6,19.1,0000.0,0005.50,0002.63,0002.21
2022-10-03 14:25:00,,0829.8,5.01,0.00,29.8,28.3,00.0,38.6,31.6,19.2,0000.0,0005.61,0002.68,0002.24
2022-10-03 14:26:00,,0829.9,5.00,0.00,29.8,28.3,00.0,38.5,31.6,19.2,0000.0,0005.60,0002.70,0002.25
2022-10-03 14:27:00,,0829.9,4.99,0.00,29.8,28.3,00.0,38.6,31.6,19.4,0000.0,0005.11,0002.70,0002.27
2022-10-03 14:28:00,,0830.0,5.01,0.00,29.8,28.3,00.0,38.5,31.6,19.3,0000.0,0003.98,0002.73,0002.28
2022-10-03 14:29:00,,0829.9,4.99,0.00,29.8,28.3,00.0,38.5,31.6,19.3,0000.0,0003.94,0002.73,0002.29
2022-10-03 14:30:00,,0829.9,5.01,0.00,29.8,28.4,00.0,38.5,31.6,19.4,0000.0,0004.05,0002.82,0002.32
2022-10-03 14:31:00,,0829.9,4.99,0.00,29.8,28.3,00.0,38.5,31.6,19.4,0000.0,0004.84,0002.92,0002.34
2022-10-03 14:32:00,,0830.0,5.00,0.00,29.8,28.3,00.0,38.6,31.6,19.3,0000.0,0004.96,0002.96,0002.35
2022-10-03 14:33:00,,0830.0,5.00,0.00,29.8,28.4,00.0,38.6,31.6,19.3,0000.0,0004.97,0002.96,0002.36
2022-10-03 14:34:00,,0830.0,5.00,0.00,29.8,28.4,00.0,38.6,31.6,19.4,0000.0,0005.14,0003.00,0002.37
2022-10-03 14:35:00,,0830.0,4.99,0.00,29.8,28.3,00.0,38.6,31.6,19.5,0000.0,0005.06,0002.99,0002.37
2022-10-03 14:36:00,,0830.0,5.02,0.00,29.8,28.3,00.0,38.6,31.6,20.4,0000.0,0005.00,0002.96,0002.36
2022-10-03 14:37:00,,0830.0,5.00,0.00,29.8,28.4,00.0,38.6,31.6,21.3,0000.0,0005.35,0003.04,0002.35
2022-10-03 14:38:00,,0830.0,5.01,0.00,29.8,28.4,00.0,38.6,31.6,20.9,0000.0,0005.65,0003.11,0002.34
2022-10-03 14:39:00,,0829.9,4.99,0.00,29.8,28.4,00.0,38.6,31.6,20.6,0000.0,0005.70,0003.12,0002.33
2022-10-03 14:40:00,,0830.0,5.01,0.00,29.8,28.4,00.0,38.6,31.6,19.5,0000.0,0005.76,0003.11,0002.33
2022-10-03 14:41:00,,0830.0,4.99,0.00,29.8,28.4,00.0,38.6,31.6,19.2,0000.0,0005.78,0003.07,0002.31
2022-10-03 14:42:00,,0830.0,5.02,0.00,29.8,28.4,00.0,38.6,31.6,19.4,0000.0,0005.05,0002.99,0002.31
2022-10-03 14:43:00,,0830.0,4.99,0.00,29.8,28.4,00.0,38.6,31.6,19.7,0000.0,0004.97,0002.99,0002.35
2022-10-03 14:44:00,,0830.1,5.01,0.00,29.8,28.4,00.0,38.6,31.6,19.8,0000.0,0004.94,0003.02,0002.40
2022-10-03 14:45:00,,0830.1,5.00,0.00,29.8,28.4,00.0,38.6,31.6,20.0,0000.0,0005.12,0003.07,0002.45
2022-10-03 14:46:00,,0830.1,5.00,0.00,29.8,28.4,00.0,38.6,31.6,20.0,0000.0,0005.98,0003.14,0002.48
2022-10-03 14:47:00,,0830.1,5.00,0.00,29.8,28.4,00.0,38.6,31.6,20.0,0000.0,0006.01,0003.15,0002.51
2022-10-03 14:48:00,,0830.1,4.99,0.00,29.8,28.4,00.0,38.6,31.7,20.1,0000.0,0005.89,0003.14,0002.54
2022-10-03 14:49:00,,0830.1,5.01,0.00,29.8,28.4,00.0,38.6,31.7,20.2,0000.0,0005.66,0003.13,0002.58
2022-10-03 14:50:00,,0830.1,4.99,0.00,29.8,28.4,00.0,38.6,31.6,20.2,0000.0,0005.89,0003.15,0002.64
2022-10-03 14:51:00,,0830.0,5.02,0.00,29.8,28.4,00.0,38.6,31.6,20.1,0000.0,0005.98,0003.19,0002.68
2022-10-03 14:52:00,,0830.1,4.99,0.00,29.8,28.4,00.0,38.6,31.7,20.1,0000.0,0006.24,0003.26,0002.76
2022-10-03 14:53:00,,0830.1,5.01,0.00,29.8,28.4,00.0,38.6,31.7,20.2,0000.0,0006.31,0003.30,0002.81
2022-10-03 14:54:00,,0830.1,5.01,0.00,29.8,28.4,00.0,38.6,31.6,20.2,0000.0,0006.47,0003.33,0002.84
2022-10-03 14:55:00,,0830.1,4.99,0.00,29.8,28.5,00.0,38.6,31.6,20.3,0000.0,0006.77,0003.35,0002.86
2022-10-03 14:56:00,,0830.1,5.01,0.00,29.9,28.5,00.0,38.6,31.7,20.2,0000.0,0007.05,0003.39,0002.88
2022-10-03 14:57:00,,0830.1,5.00,0.00,29.9,28.5,00.0,38.6,31.7,20.0,0000.0,0006.19,0003.39,0002.91
2022-10-03 14:58:00,,0830.1,5.01,0.00,29.9,28.5,00.0,38.6,31.7,19.9,0000.0,0006.38,0003.42,0002.95
2022-10-03 14:59:00,,0830.1,4.99,0.00,29.9,28.5,00.0,38.6,31.7,19.8,0000.0,0006.64,0003.43,0003.00
